Location: Rodson Ranch
(38.7188°N, 119.3202°W)
Time: 17:16:34
(UTC+00:00)

Cosmos 2228 - Pass Details

Date: 29 October 2020
Orbit: 590 x 617 km, 82.5° (Epoch: 23 November)

Event Time Altitude Azimuth Distance (km) Brightness Sun altitude
Rises 12:57:03 0° 344° (NNW) 2,881 6.3 -17.0°
Reaches altitude 10° 12:59:22 10° 337° (NNW) 1,976 5.4 -16.6°
Maximum altitude 13:03:26 39° 268° (W) 922 3.4 -15.8°
Drops below altitude 10° 13:07:31 10° 200° (SSW) 1,971 5.5 -15.0°
Sets 13:09:49 0° 192° (SSW) 2,873 6.4 -14.5°
